This is the latest recevied weather packets stored in our database for station/object SV9TNF-55. If no packets are shown the sender has not sent any weather packets the latest 10 day(s).
| Time | Temp. | Humidity | Pressure | Rain* | Wind** | Luminosity | Snow |
|---|---|---|---|---|---|---|---|
| 1788595057 | 18.89° C | 66% | 1017.8 hPa | 0 mm | 4.02 m/s, 315° | - | - |
| 1788594457 | 18.33° C | 67% | 1017.9 hPa | 0 mm | 2.24 m/s, 292° | - | - |
| 1788593857 | 18.33° C | 67% | 1017.9 hPa | 0 mm | 2.24 m/s, 292° | - | - |
| 1788593257 | 17.78° C | 66% | 1017.8 hPa | 0 mm | 4.02 m/s, 292° | - | - |
| 1788592657 | 17.78° C | 69% | 1017.6 hPa | 0 mm | 3.13 m/s, 292° | - | - |
| 1788592056 | 17.78° C | 73% | 1017.6 hPa | 0 mm | 3.13 m/s, 292° | - | - |
| 1788591456 | 17.78° C | 74% | 1017.6 hPa | 0 mm | 3.13 m/s, 315° | - | - |
| 1788590856 | 17.78° C | 72% | 1017.6 hPa | 0 mm | 2.68 m/s, 292° | - | - |
| 1788590256 | 17.78° C | 69% | 1017.6 hPa | 0 mm | 4.02 m/s, 292° | - | - |
| 1788589656 | 17.22° C | 69% | 1017.7 hPa | 0 mm | 3.13 m/s, 292° | - | - |
| 1788589056 | 17.78° C | 69% | 1017.4 hPa | 0 mm | 3.58 m/s, 292° | - | - |
| 1788588457 | 17.78° C | 69% | 1017.5 hPa | 0 mm | 4.47 m/s, 292° | - | - |
| 1788587856 | 17.22° C | 69% | 1016.9 hPa | 0 mm | 4.02 m/s, 292° | - | - |
| 1788587256 | 17.22° C | 69% | 1016.7 hPa | 0 mm | 4.92 m/s, 292° | - | - |
| 1788586656 | 17.22° C | 70% | 1016.6 hPa | 0 mm | 4.02 m/s, 292° | - | - |
| 1788586055 | 16.67° C | 71% | 1017 hPa | 0 mm | 4.47 m/s, 270° | - | - |
| 1788585455 | 16.67° C | 72% | 1016.6 hPa | 0 mm | 4.02 m/s, 292° | - | - |
| 1788584855 | 16.67° C | 71% | 1016.3 hPa | 0 mm | 4.47 m/s, 292° | - | - |
| 1788584256 | 16.67° C | 72% | 1016.3 hPa | 0 mm | 4.02 m/s, 292° | - | - |
| 1788583655 | 16.67° C | 73% | 1016.2 hPa | 0 mm | 4.92 m/s, 292° | - | - |
| 1788583055 | 16.67° C | 74% | 1015.9 hPa | 0 mm | 5.36 m/s, 292° | - | - |
| 1788582455 | 16.67° C | 74% | 1015.4 hPa | 0 mm | 4.92 m/s, 292° | - | - |
| 1788581855 | 16.67° C | 76% | 1015.4 hPa | 0 mm | 4.92 m/s, 292° | - | - |
| 1788581255 | 16.67° C | 79% | 1015.2 hPa | 0 mm | 4.47 m/s, 292° | - | - |
| 1788580655 | 16.67° C | 79% | 1015.2 hPa | 0 mm | 4.47 m/s, 292° | - | - |
* Rain latest hour (hover to see other rain measurements)
** Current wind speed in m/s (hover to see current wind gust speed)